Preview of NWS' New Version of Forecast
This preview is not operational and should not be used for support decisions.

Regional Weather Roundup (RWR)

Issued by National Weather Service (NWS)

                            
000
ASUS45 KCYS 200010
RWRWY 

WYOMING REGIONAL WEATHER ROUNDUP
NATIONAL WEATHER SERVICE CHEYENNE WY
500 PM MST TUE FEB 19 2019

NOTE:  "FAIR" INDICATES FEW OR NO CLOUDS BELOW 12,000 FEET
WITH NO SIGNIFICANT WEATHER AND/OR OBSTRUCTIONS TO VISIBILITY.

WYZ001-200100-
...YELLOWSTONE NATIONAL PARK...
  
CITY           SKY/WX    TMP DP  RH WIND       PRES   REMARKS
LK YELLOWSTONE   N/A      5  -3  69 MISG      29.67S                  
6HR MIN TEMP:   4; 6HR MAX TEMP:   8;                                

W YELLOWSTONE  NOT AVBL                                               

$$
WYZ002>013-054>058-071-098>099-200100-
...NORTHERN WYOMING...
  
CITY           SKY/WX    TMP DP  RH WIND       PRES   REMARKS
JACKSON        PTCLDY    10  -2  58 W14       29.75S WCI  -6          
CODY           CLEAR     22   8  55 N8        29.71S WCI  12          
GREYBULL       CLEAR     20   7  57 S3        29.77F                  
6HR MIN TEMP:  14; 6HR MAX TEMP:  21;                                

WORLAND        CLEAR     20   8  60 NE3       29.75F                  
6HR MIN TEMP:  15; 6HR MAX TEMP:  21;                                

SHERIDAN       CLEAR     19   6  57 CALM      29.77F                  
6HR MIN TEMP:   8; 6HR MAX TEMP:  22;                                

BUFFALO        CLEAR     18   1  47 N9        29.71S WCI   7          
6HR MIN TEMP:  17; 6HR MAX TEMP:  23;                                

GILLETTE       CLEAR     16   9  74 SE8       29.75S WCI   5          
6HR MIN TEMP:  12; 6HR MAX TEMP:  18;                                

HULETT         MOCLDY    18   9  68 MISG      29.78F                  
NEWCASTLE        N/A     18   9  68 SE3       29.81F                  

$$
WYZ014>020-022>026-101>103-200100-
...CENTRAL WYOMING...
  
CITY           SKY/WX    TMP DP  RH WIND       PRES   REMARKS
BIG PINEY      PTCLDY     2  -6  69 E6        29.71F WCI  -9          
6HR MIN TEMP:  -7; 6HR MAX TEMP:   6;                                

PINEDALE       CLEAR      5  -4  66 CALM      29.71S                  
DUBOIS         MOCLDY    12  -4  48 NW14      29.61S WCI  -3          
LANDER         PTCLDY    18   3  52 W6        29.66F WCI  10          
6HR MIN TEMP:  13; 6HR MAX TEMP:  20;                                

RIVERTON       MOCLDY    20   6  55 E6        29.68F WCI  12          
6HR MIN TEMP:  14; 6HR MAX TEMP:  22;                                

CASPER         CLEAR     19   7  59 S16       29.69F WCI   4          
6HR MIN TEMP:  15; 6HR MAX TEMP:  20;                                

DOUGLAS        CLOUDY    20   9  62 S7        29.73F WCI  11          
6HR MIN TEMP:  16; 6HR MAX TEMP:  23;                                


$$
WYZ021-027>030-104>119-200100-
...SOUTHERN WYOMING...
  
CITY           SKY/WX    TMP DP  RH WIND       PRES   REMARKS
EVANSTON       CLOUDY    11   3  70 W15       29.76R WCI  -5          
KEMMERER       LGT SNOW   9   3  78 W9        29.72S WCI  -5          
FORT BRIDGER   PTCLDY    12   5  73 E17       29.78S WCI  -5          
ROCK SPRINGS   CLEAR     10   3  73 SW14      29.72F WCI  -6          
6HR MIN TEMP:   2; 6HR MAX TEMP:  12;                                

DIXON          FAIR       8  -1  66 NE5       29.78S WCI  -1          
RAWLINS        CLOUDY    11   3  70 SW10      29.70S WCI  -3          
6HR MIN TEMP:   8; 6HR MAX TEMP:  13;                                

SARATOGA       CLOUDY    14   3  62 SW12      29.71F WCI   0          
LARAMIE        PTCLDY    12   7  80 SE3       29.62F                  
6HR MIN TEMP:  10; 6HR MAX TEMP:  14; 6HR PCP: TRACE;                

CHEYENNE       LGT SNOW  16  11  80 S6        29.67F WCI   7          
6HR MIN TEMP:  14; 6HR MAX TEMP:  18; 6HR PCP:  0.01;                

TORRINGTON     CLOUDY    21  14  74 SE8       29.77F WCI  11          
6HR MIN TEMP:  19; 6HR MAX TEMP:  22; 6HR PCP: TRACE;                

PINE BLUFFS    CLOUDY    19  10  68 S7        29.74F WCI  10          

$$